Theta_e
341 341 341 341 342 341 339 339 339 340 340 339 339 339 338 338 338 335 330 328 331 336 337 336 336 335 334 332 330 329 329 330 330 331 330 329 327 327 326 324 322 319 315 313 312 311 308 305 304 304 303 302 301 301 301 300 300 300 300 300 300 302 305 307 307 307 305 304 304 304 303 303 303 302 300 298 297 296 296 296 296 296 296 296 296
340 341 341 341 341 341 341 339 339 340 340 340 339 339 339 338 338 336 330 328 332 336 337 336 336 335 333 331 329 329 330 330 330 330 329 328 327 326 327 325 323 319 316 312 310 308 304 302 302 302 301 301 300 300 300 299 299 299 299 299 299 300 304 306 306 306 305 305 304 304 304 304 302 301 299 297 296 296 296 297 296 296 296 296 297
340 340 340 340 341 342 341 340 339 340 340 340 340 339 339 338 339 337 331 328 333 336 337 336 336 336 333 330 329 329 330 330 330 329 328 327 326 326 326 326 323 319 315 311 308 305 302 301 301 301 301 300 300 300 299 299 299 299 299 299 298 298 302 305 307 306 305 305 304 304 303 302 301 299 297 296 296 296 297 297 297 297 297 296 297
340 340 340 340 341 341 341 340 340 340 339 340 340 339 339 338 339 337 332 329 334 337 337 336 336 335 333 331 330 330 330 330 329 329 327 326 326 326 325 325 323 318 313 309 306 303 301 300 300 300 300 300 300 299 299 299 299 298 298 298 298 298 300 304 305 304 304 304 303 302 301 300 299 298 297 296 297 297 297 297 297 297 297 297 297
340 340 340 340 341 341 342 341 340 339 339 340 340 339 339 338 339 338 332 330 334 337 337 337 336 335 334 331 330 330 330 330 329 328 327 325 325 325 324 324 322 317 311 307 304 301 300 300 300 300 300 299 299 299 299 298 298 298 298 298 298 298 299 300 300 300 302 302 300 300 299 298 298 297 296 297 298 298 299 298 298 298 297 297 298
340 340 340 340 341 341 341 342 340 339 339 340 340 340 339 338 339 338 333 331 335 337 337 336 336 335 334 331 331 330 330 329 328 327 326 325 325 325 324 324 321 316 310 305 302 301 300 300 300 299 299 299 299 298 298 298 298 298 298 298 298 298 299 300 299 299 300 299 298 298 298 297 297 297 296 297 297 298 299 299 299 299 298 298 298
340 340 340 340 341 341 341 341 341 340 339 339 340 339 339 338 339 339 334 332 336 337 336 336 335 334 334 332 331 330 330 329 328 326 325 325 325 325 324 323 320 314 307 303 301 300 300 300 299 299 299 298 298 298 298 298 298 298 298 298 298 299 300 300 298 298 298 298 298 298 297 297 297 297 297 297 297 297 298 298 299 300 299 298 297
340 340 340 340 340 341 341 341 341 340 339 339 339 339 338 338 339 338 334 333 336 337 336 335 334 334 333 332 331 331 330 329 327 326 326 326 325 323 322 321 317 310 305 301 300 300 299 299 299 299 299 298 298 298 298 298 298 297 298 297 298 299 300 298 298 298 298 298 298 297 297 297 297 297 296 297 298 299 298 297 298 299 299 298 298
340 340 339 339 340 340 341 341 341 340 339 339 338 338 337 338 339 337 335 335 337 336 335 334 333 333 333 332 331 330 330 329 327 326 326 326 324 321 320 319 314 306 302 300 299 299 299 299 299 299 298 298 298 298 297 297 298 298 297 297 299 299 298 298 298 298 298 298 298 297 297 297 296 296 297 297 298 299 298 297 298 298 298 299 299
340 339 339 339 339 340 340 341 340 339 339 338 338 336 336 337 339 337 335 336 336 335 334 333 333 332 331 331 330 330 329 328 327 326 326 325 323 319 317 316 310 304 300 299 299 299 299 299 299 298 298 298 298 298 298 298 297 297 297 298 299 298 297 297 297 298 297 297 297 297 297 297 296 296 297 297 297 298 298 298 298 298 298 299 300
339 339 339 339 339 339 340 340 339 338 338 338 337 336 334 335 338 338 336 335 335 334 333 333 333 332 330 329 330 329 329 329 327 326 326 325 322 317 314 312 306 302 300 299 299 299 298 298 298 298 298 298 298 299 298 298 297 297 298 299 299 297 297 297 297 297 297 297 297 297 296 296 296 296 297 297 297 298 298 298 298 298 299 299 300
339 339 339 338 338 339 339 339 338 338 338 337 337 336 334 334 336 337 336 335 334 334 333 333 333 332 330 329 329 329 329 328 327 326 326 325 320 315 311 308 303 301 299 299 299 298 298 298 298 298 298 298 298 299 298 298 298 298 299 298 297 297 297 297 297 297 297 297 297 297 297 296 296 297 297 297 297 298 298 299 298 298 298 299 299
339 339 338 338 338 338 339 338 337 337 337 337 337 335 333 334 336 335 335 335 335 334 334 334 333 332 330 329 329 329 329 328 327 326 325 324 319 313 309 305 302 300 299 298 298 298 298 298 298 298 298 298 298 298 298 298 298 299 298 297 297 296 296 297 297 297 296 297 296 297 297 297 296 297 297 297 297 297 298 299 299 298 298 299 299
339 339 338 338 339 339 339 338 337 337 337 337 337 334 333 336 337 334 334 336 336 335 335 335 333 331 330 329 329 329 329 328 327 327 325 324 319 312 307 304 301 299 299 298 298 298 298 298 298 298 298 298 298 298 298 298 299 298 297 297 296 296 296 296 297 297 297 296 296 296 297 297 296 296 297 297 297 297 298 299 299 298 298 298 298
338 339 338 339 339 339 339 338 337 337 337 337 336 334 333 336 337 334 334 336 336 335 334 333 332 331 329 330 329 329 328 328 327 326 325 324 319 311 305 302 300 299 299 298 298 298 298 298 298 298 298 298 298 299 299 299 298 298 297 296 296 296 296 296 296 297 296 296 296 296 297 297 296 296 296 297 297 298 298 298 298 298 298 298 298
339 339 339 339 339 339 338 338 337 337 337 337 336 333 334 337 337 334 334 337 336 334 333 332 332 330 330 330 329 328 328 327 327 326 326 324 319 311 304 302 300 299 299 298 298 298 298 298 298 298 298 298 298 298 298 298 297 297 296 296 296 296 296 296 296 296 296 296 295 296 297 297 296 296 296 297 297 298 298 298 298 298 298 299 300
339 339 339 339 339 339 338 338 337 337 337 337 335 333 334 336 336 334 334 336 336 335 334 333 332 331 330 330 329 328 327 326 326 326 326 325 320 311 304 301 300 299 299 298 298 298 298 298 298 299 299 298 297 297 297 297 297 297 296 296 296 296 296 296 296 296 296 295 295 296 297 297 296 295 296 296 297 298 298 298 299 299 299 300 300
338 339 339 339 339 339 338 338 337 337 337 336 335 334 334 335 334 334 335 337 336 335 335 335 333 332 331 330 329 328 326 326 326 326 326 325 321 312 305 301 300 299 299 298 298 298 298 298 299 299 299 298 297 297 298 298 298 297 296 296 296 296 296 296 296 296 295 295 295 296 297 297 296 295 295 296 297 298 298 299 300 300 300 300 301
338 339 339 339 339 339 338 338 338 337 337 336 335 334 334 334 333 333 336 337 335 334 335 335 334 333 332 331 329 327 326 325 326 326 325 325 321 313 305 301 300 299 299 299 299 298 298 299 299 299 298 298 297 298 298 298 298 297 296 296 296 296 295 295 295 295 295 295 295 296 297 297 296 295 295 295 296 297 298 298 299 299 299 300 300
338 338 338 338 338 338 338 338 338 337 337 336 335 334 334 333 333 333 334 336 336 335 334 334 333 333 332 331 328 326 326 326 326 326 325 324 321 313 305 302 300 299 299 299 299 299 298 299 299 299 298 298 298 299 299 298 297 296 296 296 296 295 295 295 295 295 295 295 295 296 297 297 296 295 294 295 296 297 298 298 299 299 299 300 300
337 337 337 338 338 338 337 337 338 337 337 337 335 334 334 333 333 333 333 334 336 336 333 332 333 333 333 331 328 327 327 327 327 326 324 323 319 312 305 302 300 300 300 299 299 299 298 298 298 298 298 298 298 299 299 298 297 296 296 296 295 295 295 295 295 295 295 295 295 295 296 296 296 295 294 295 296 297 298 298 299 299 299 299 300
336 336 336 337 337 337 337 337 337 337 336 335 334 334 333 333 333 334 333 333 334 334 334 333 333 334 333 331 329 328 328 328 326 324 323 322 317 311 306 303 302 301 301 300 300 299 299 299 299 298 298 298 298 298 298 298 297 296 295 295 295 294 294 294 294 294 294 294 295 295 296 296 296 295 294 294 296 297 298 298 299 299 299 299 299
336 336 336 336 336 336 336 335 335 335 335 334 332 333 334 334 334 334 335 334 333 333 334 333 333 333 333 331 330 329 329 328 326 324 323 321 317 312 306 304 305 305 303 302 301 300 300 300 300 300 299 299 298 298 297 297 297 296 295 295 294 293 293 293 293 293 294 294 294 295 295 295 295 295 294 294 295 296 297 298 299 299 299 299 299
336 336 336 335 334 334 334 334 334 335 334 333 332 332 334 334 335 335 335 334 333 333 333 333 333 333 332 331 330 329 329 328 325 323 322 320 318 315 309 307 307 307 304 303 303 302 302 302 302 301 301 300 299 298 298 297 297 296 295 294 293 293 293 293 293 294 295 295 295 295 294 295 295 294 294 294 295 296 297 298 298 299 299 299 299
335 335 334 334 333 333 333 334 335 335 335 334 333 332 333 334 335 335 335 333 332 331 332 333 333 332 332 331 330 329 328 327 325 323 321 319 318 317 314 311 308 306 305 305 304 303 303 303 303 303 302 301 299 298 298 298 297 297 296 296 296 296 296 296 297 298 298 297 296 295 294 294 294 294 294 294 294 296 297 298 298 298 299 299 299
335 335 335 334 334 334 333 334 335 335 335 335 335 334 334 335 336 335 334 333 332 331 331 332 332 331 332 331 330 329 328 327 325 323 321 318 316 317 316 312 307 305 306 306 305 305 305 304 304 304 303 302 300 299 298 298 298 299 299 299 299 300 300 300 300 300 299 298 297 296 295 294 294 294 294 294 294 295 297 298 298 298 299 299 299
335 335 335 335 335 335 335 335 335 335 335 335 335 335 334 335 336 335 333 333 333 331 331 331 331 331 332 331 330 328 328 326 324 323 322 319 318 317 315 310 307 306 307 307 307 306 306 305 304 304 304 303 301 300 299 299 300 301 301 301 302 301 301 301 301 300 299 299 298 297 295 295 294 294 294 294 294 295 297 298 298 298 299 299 300
336 336 336 336 336 336 336 336 335 335 335 335 335 335 334 334 335 334 333 332 333 332 330 331 332 332 331 330 329 328 327 326 325 325 323 322 320 318 314 309 307 307 308 308 308 307 306 306 305 304 304 303 302 300 300 300 301 302 302 302 302 302 301 301 301 300 299 298 296 295 294 293 293 293 293 294 294 295 296 298 299 299 299 299 300
336 336 336 336 336 336 336 336 336 335 335 334 335 335 334 333 334 333 331 331 333 332 330 330 331 332 331 330 328 327 327 326 326 325 324 324 322 319 315 312 310 310 310 310 308 307 307 306 305 305 304 304 302 301 300 301 301 302 302 302 302 302 301 301 301 300 299 298 296 296 295 295 294 293 293 293 293 294 296 298 299 299 300 300 300
335 335 335 336 336 336 336 337 336 335 334 334 334 334 334 333 332 332 331 331 331 331 331 330 330 330 330 329 328 328 326 325 325 325 324 324 322 320 317 315 314 313 312 310 308 308 307 307 306 306 305 304 303 301 301 301 302 302 302 302 302 302 302 301 301 301 300 300 299 299 299 298 297 296 294 294 293 294 295 297 299 300 300 300 300
333 334 335 335 335 336 336 336 336 334 333 334 334 333 333 332 332 331 331 331 331 331 330 330 329 329 329 328 328 327 326 324 324 324 324 323 322 320 318 316 314 313 312 310 309 308 308 307 307 307 307 306 305 304 302 301 301 302 302 302 302 302 302 302 302 301 301 301 301 301 300 299 299 297 296 295 294 293 294 296 298 300 300 300 300
330 331 332 333 333 334 335 334 333 332 332 332 332 332 332 332 331 330 329 328 328 329 329 329 328 328 328 327 326 326 325 325 325 324 323 322 320 319 318 316 314 313 312 310 309 308 308 308 308 308 308 308 307 306 305 303 302 302 302 302 302 302 302 302 302 302 302 302 302 302 301 300 299 298 297 295 294 294 294 295 297 299 300 300 300
328 329 329 330 331 332 332 331 330 330 331 331 331 330 330 331 332 330 327 324 324 326 327 328 328 328 326 325 325 324 324 324 324 323 322 321 320 318 317 316 314 312 311 310 309 309 309 308 308 309 309 309 308 308 307 306 304 303 302 302 302 302 302 302 302 302 302 302 303 303 302 301 300 299 298 297 296 294 294 295 297 299 300 300 301
327 327 328 329 329 330 330 329 329 330 330 330 329 328 328 329 329 329 327 325 324 324 325 326 326 326 325 325 324 323 323 323 323 322 321 321 319 318 317 316 314 313 312 311 310 309 309 308 308 309 309 309 309 308 308 307 305 303 302 302 302 302 302 303 303 302 301 301 302 303 303 302 301 300 300 300 298 295 293 295 298 300 301 301 300
326 326 326 327 327 328 328 329 328 329 329 328 328 327 326 326 325 325 326 326 325 324 324 324 324 324 324 324 324 323 323 322 322 321 320 320 318 318 317 316 315 314 313 312 311 310 309 309 309 309 309 309 309 309 308 307 305 303 302 302 301 301 302 302 302 301 300 300 301 302 302 302 302 301 301 301 299 296 293 293 296 300 301 300 300
325 325 325 325 326 326 327 327 327 327 328 327 327 327 326 325 324 323 324 326 325 325 325 324 324 324 324 323 323 322 322 321 321 320 320 319 318 317 317 317 316 316 315 315 313 312 311 310 309 309 309 309 309 309 308 307 304 303 302 302 302 302 301 301 301 301 300 299 299 300 301 302 302 302 301 301 299 296 294 293 295 298 300 300 299
324 324 324 324 324 324 325 325 325 326 327 327 327 326 326 325 324 324 324 324 324 324 325 325 324 324 323 323 322 322 322 321 320 319 318 317 317 317 317 317 317 316 316 316 315 314 313 312 311 310 310 309 309 309 308 306 304 302 302 302 302 302 302 301 301 300 299 298 297 297 299 301 301 301 301 300 299 296 294 293 294 297 299 299 299
324 324 324 323 323 323 323 324 324 325 325 325 326 326 325 324 324 324 324 324 324 325 325 325 324 324 323 323 322 322 321 321 319 318 317 317 316 317 317 317 316 316 315 315 315 314 313 312 311 310 310 309 308 308 307 305 303 302 301 301 301 301 301 301 301 301 300 299 297 296 297 298 299 299 298 298 297 296 294 293 294 296 298 299 299
324 325 324 324 324 324 323 322 323 323 324 324 325 325 325 324 324 325 325 325 325 325 325 324 324 323 323 322 322 321 320 320 320 319 318 318 317 317 317 317 316 316 315 314 313 313 312 311 310 309 307 307 306 305 304 303 301 301 300 300 299 299 299 299 299 299 299 299 298 297 296 296 296 296 296 296 296 295 293 294 295 296 298 298 298
324 324 324 325 325 324 323 322 322 323 323 324 324 324 325 325 325 325 325 325 324 324 324 323 323 322 322 321 321 320 320 319 319 319 319 318 318 317 317 317 316 316 315 315 313 312 311 310 309 307 306 304 303 302 302 301 300 300 299 299 298 298 298 298 297 297 297 297 298 297 297 296 295 295 295 295 295 294 293 295 296 297 298 298 298
324 324 324 324 324 323 323 323 322 322 323 323 323 323 323 324 324 324 323 323 322 322 322 321 321 321 320 320 319 319 318 318 318 318 317 317 317 317 317 316 316 316 316 315 314 312 310 309 308 306 304 303 301 301 300 300 300 299 299 298 298 297 297 296 296 295 295 295 296 296 296 296 295 295 295 294 294 293 294 295 297 298 298 298 297
322 322 323 323 322 322 323 324 323 322 323 323 323 322 322 321 322 322 321 321 321 320 320 319 319 318 318 318 317 316 316 316 316 316 316 316 316 316 316 316 316 316 316 314 313 312 310 308 306 305 303 301 301 301 301 302 301 301 300 300 299 298 297 296 295 294 294 294 294 294 295 295 295 294 294 294 293 293 295 296 297 297 297 297 297
320 320 320 321 321 320 321 322 323 323 323 322 322 322 321 320 320 320 320 320 319 318 318 318 317 316 316 316 316 315 315 315 315 315 315 315 315 315 315 315 315 315 314 313 312 311 309 307 305 303 302 301 302 302 303 303 303 302 302 301 300 300 298 296 295 293 293 293 293 293 293 294 294 293 293 293 293 294 296 297 297 297 297 297 297
320 319 319 320 320 319 319 319 320 321 321 321 320 320 320 319 319 319 319 319 319 319 318 318 318 317 317 317 316 316 316 316 316 316 316 316 316 316 316 315 315 314 314 313 312 310 309 307 305 303 302 303 303 304 304 304 304 304 303 302 302 301 300 298 296 295 293 293 293 293 293 293 293 293 293 292 293 294 296 297 297 297 297 297 297
319 319 319 320 320 319 318 318 319 319 320 320 319 319 319 319 319 319 319 319 319 319 319 318 318 318 318 317 317 316 316 316 317 317 317 317 317 316 316 316 315 314 314 313 312 310 309 307 306 305 304 304 305 305 305 304 304 304 304 303 303 303 302 300 298 296 294 293 293 293 293 293 293 293 292 292 293 294 296 296 297 297 297 297 298
319 319 319 320 320 319 319 319 319 319 319 319 319 319 319 319 319 319 318 318 318 318 318 318 318 317 317 317 317 316 316 316 316 316 316 316 316 316 316 315 315 314 314 313 312 310 309 308 307 307 307 306 306 305 304 304 303 303 303 304 304 303 303 302 300 298 296 294 293 293 293 293 293 292 292 291 292 294 295 296 297 297 297 298 298
317 318 318 319 319 319 319 319 319 319 319 318 318 318 318 318 318 318 317 317 317 317 317 317 317 317 317 316 316 316 316 316 316 315 315 314 314 314 314 314 314 314 313 313 312 311 309 308 308 308 308 307 306 305 304 303 303 303 303 303 303 303 303 302 302 301 299 296 294 293 292 292 292 292 292 291 291 292 294 295 295 296 297 297 297
314 315 316 317 317 318 318 318 318 318 318 317 317 317 316 316 316 315 316 316 316 316 316 316 316 316 316 315 315 315 315 315 314 314 313 313 313 313 313 313 313 313 313 313 313 312 311 310 309 309 309 308 306 305 305 304 303 303 302 302 301 301 302 302 301 301 300 299 296 294 292 292 292 291 291 291 292 292 292 293 294 295 296 297 298
312 314 315 315 316 316 316 316 316 316 316 316 316 315 315 314 314 314 314 314 314 314 314 314 314 314 314 314 314 314 314 314 313 313 313 313 313 313 313 312 313 313 312 312 312 312 311 310 310 309 309 308 307 306 305 304 304 303 303 302 301 301 300 300 300 300 300 300 298 295 293 292 292 291 291 292 293 293 294 294 295 296 297 298 299
313 314 314 315 315 315 315 315 315 315 315 315 315 314 314 314 313 313 313 313 313 313 312 312 312 312 312 312 312 312 312 312 313 313 313 313 313 313 312 312 312 312 312 312 311 311 311 310 310 310 309 308 307 306 305 305 304 304 304 303 302 300 299 298 297 297 298 298 298 296 294 292 291 292 294 295 296 296 297 297 297 298 298 299 299
312 312 313 313 314 314 314 314 314 314 314 314 314 313 313 313 313 313 313 313 313 312 312 312 312 312 311 311 311 311 311 311 312 312 312 312 312 312 312 312 312 312 311 311 311 311 310 310 309 308 308 307 306 306 306 305 305 305 305 303 302 300 299 299 299 298 297 297 297 297 295 292 292 295 297 299 299 299 298 298 298 298 298 298 298
Wind_Speed
52 53 50 47 46 42 41 43 43 42 41 39 37 35 32 30 28 26 26 25 24 23 21 19 18 17 17 17 18 18 18 16 16 15 15 14 14 14 13 13 13 14 13 12 13 13 12 12 12 12 12 11 11 10 10 10 10 11 12 12 13 14 14 15 17 19 18 15 14 15 14 14 15 15 15 16 17 17 17 16 15 14 12 11 11
53 52 50 48 46 44 44 44 43 42 41 40 38 35 33 31 29 27 27 26 24 23 21 19 18 17 17 17 18 18 17 16 16 15 15 15 15 14 14 14 14 15 14 13 13 13 12 12 12 12 12 11 10 10 10 10 10 10 10 10 11 12 13 15 17 18 16 15 14 14 14 13 14 14 14 15 15 15 13 13 14 13 12 11 9
51 50 50 48 46 45 46 44 43 43 41 40 39 36 33 32 31 29 28 26 25 24 22 20 18 18 17 17 17 18 18 17 16 15 15 15 15 15 15 15 15 15 15 14 13 13 13 12 12 12 11 10 10 10 9 10 10 9 9 9 8 10 11 12 13 13 14 14 13 13 13 12 12 13 14 14 14 13 11 11 12 12 11 10 9
47 47 49 47 45 46 47 45 44 44 42 40 39 36 33 33 32 30 29 27 25 24 22 20 19 19 18 18 17 18 18 17 16 15 15 14 15 15 16 16 16 16 16 15 14 13 13 13 13 12 11 10 10 10 9 10 10 9 9 8 8 8 8 8 8 9 13 14 13 12 12 11 11 12 12 12 12 10 10 10 9 9 9 9 9
46 45 46 46 46 47 47 46 46 44 42 41 39 36 34 34 32 30 29 28 26 25 23 22 21 20 19 18 18 18 18 16 15 15 15 15 15 16 17 17 17 17 16 15 15 14 14 14 13 12 11 10 10 10 10 10 10 9 9 9 9 9 9 9 8 8 12 13 11 10 10 10 10 11 10 9 8 7 7 7 7 6 7 9 9
46 42 42 45 47 46 46 47 47 45 43 41 39 36 34 34 33 31 30 29 27 25 24 23 21 20 20 19 19 19 18 16 16 16 15 15 16 16 17 18 18 18 17 17 16 16 16 15 14 13 11 11 11 10 10 10 9 9 9 9 9 9 9 8 7 9 11 12 10 9 9 9 9 10 10 9 7 6 5 5 5 5 7 8 7
45 43 43 46 47 46 46 47 47 46 43 41 39 35 34 34 33 31 30 29 27 26 25 23 21 20 21 20 20 19 18 17 17 16 16 15 16 17 18 18 19 19 18 18 17 17 17 16 15 14 13 12 12 11 10 9 9 9 9 10 10 9 9 8 8 10 11 10 9 8 8 8 8 9 9 9 7 7 7 5 4 5 7 7 5
47 45 44 45 47 45 46 47 48 46 43 41 38 34 33 33 32 31 30 29 28 26 25 23 22 22 22 21 21 20 19 18 18 17 16 16 16 17 18 19 19 19 19 18 18 18 18 17 16 15 14 13 12 11 10 10 10 10 10 11 10 10 9 8 9 10 10 9 8 8 7 8 8 8 9 8 6 6 7 6 4 5 6 7 6
46 45 44 46 47 45 45 48 48 45 42 40 37 32 30 31 31 30 29 29 28 26 25 24 24 24 23 23 23 22 20 20 19 17 16 15 16 17 18 18 19 19 19 19 19 19 18 18 17 16 15 14 13 12 12 12 11 11 11 11 10 10 9 9 10 10 9 8 8 7 7 7 8 8 8 7 6 6 7 6 5 5 6 7 7
45 47 48 47 46 44 46 48 46 43 42 41 36 30 28 29 30 30 30 29 28 27 26 25 25 25 24 23 24 23 22 21 19 17 16 15 15 16 17 18 19 19 19 19 20 19 19 18 17 16 15 15 14 13 13 12 11 11 11 10 10 10 10 10 10 9 9 8 7 7 7 7 8 8 8 8 8 7 7 7 6 5 6 7 7
46 47 48 46 44 43 46 46 45 43 42 40 35 29 27 28 31 32 31 29 28 28 27 27 27 24 22 23 24 23 22 21 19 18 17 15 15 16 18 19 19 19 19 20 20 19 18 18 17 16 15 15 14 13 12 12 12 13 12 11 11 12 11 9 9 9 8 8 7 7 6 7 8 8 8 8 7 6 6 6 6 6 6 7 8
45 46 45 44 43 43 45 45 44 43 42 38 34 29 27 29 31 33 32 30 29 29 29 28 27 24 22 22 24 23 21 20 19 18 17 15 15 17 19 20 20 20 20 20 20 19 18 17 17 16 15 14 14 13 13 14 14 14 13 13 13 14 13 11 10 9 8 8 8 7 7 7 8 8 8 8 7 7 7 6 6 6 6 7 8
43 43 42 42 42 44 46 45 43 43 41 37 34 30 28 31 33 33 32 31 30 30 31 30 27 24 23 22 23 24 23 21 20 18 16 14 15 17 20 20 20 20 19 19 20 19 18 17 17 16 15 15 14 14 15 16 15 14 14 14 15 15 15 14 12 11 10 9 8 8 8 8 8 8 8 7 7 7 7 6 7 7 6 7 8
40 41 41 42 43 44 45 44 44 43 41 37 34 31 30 34 35 32 30 32 31 30 30 30 27 24 23 22 22 23 23 20 18 17 14 14 15 18 21 21 20 19 19 19 19 19 18 17 17 16 16 16 16 16 17 17 15 15 15 16 16 16 15 15 14 12 11 9 9 9 9 9 9 9 8 7 7 7 7 7 7 7 7 8 8
40 41 41 42 44 45 44 44 43 42 40 37 34 32 32 36 35 31 30 33 33 31 30 29 27 25 23 22 22 23 22 19 18 16 14 14 16 18 21 21 20 20 20 20 19 19 18 17 17 17 18 17 17 17 17 16 15 16 16 17 17 17 16 15 14 12 11 10 10 10 10 10 10 10 9 8 8 8 8 8 8 8 9 9 9
39 40 41 43 44 44 44 44 43 42 40 38 36 33 34 38 37 31 30 32 33 33 32 29 27 26 24 23 22 22 22 21 19 17 15 14 16 20 22 22 21 21 21 21 21 19 18 18 19 19 19 18 18 17 17 16 16 17 17 17 18 18 17 17 15 13 13 12 12 12 11 11 10 10 10 10 10 9 9 9 9 8 9 10 10
38 40 41 43 43 44 44 43 43 42 41 39 37 34 34 37 37 32 30 32 34 35 35 31 28 26 26 25 24 23 23 23 21 18 17 16 18 22 24 23 22 22 22 22 21 20 20 21 21 21 20 19 18 18 18 17 18 18 18 18 19 19 19 18 16 15 14 13 13 13 12 12 11 11 11 12 11 11 10 10 9 9 9 10 10
37 39 40 41 41 41 42 42 42 42 42 40 37 35 35 36 36 34 33 33 32 34 35 33 30 29 28 26 24 24 24 23 22 20 18 18 20 22 24 24 23 23 23 22 22 22 22 21 20 21 20 19 19 19 18 19 19 19 19 19 20 21 20 19 18 17 16 15 14 14 14 13 12 12 12 13 13 13 12 11 10 10 10 10 10
36 37 38 38 38 38 39 40 40 41 41 39 36 35 35 34 33 32 33 34 32 30 31 32 31 30 30 26 23 23 23 22 22 21 19 19 21 23 24 25 24 24 24 23 23 23 22 21 20 21 20 19 19 19 19 19 20 19 19 20 21 22 21 19 19 18 17 16 15 15 15 15 14 13 13 14 15 14 13 12 12 12 12 11 11
33 34 35 35 35 36 37 38 39 39 38 37 35 34 33 31 30 29 31 35 36 31 27 29 31 32 31 28 26 24 23 22 22 22 20 20 21 22 25 25 25 25 25 25 25 24 23 22 21 20 20 20 20 20 19 19 19 19 20 21 21 21 20 19 19 18 18 17 16 16 17 16 16 15 14 14 15 15 14 13 13 13 13 13 12
29 30 32 33 34 36 36 37 37 36 36 35 34 33 30 28 29 30 30 34 38 35 29 28 32 33 33 31 28 26 24 23 23 22 20 20 20 21 24 24 24 24 24 24 24 24 23 22 21 20 19 20 20 20 19 19 19 20 21 21 20 19 19 19 19 19 19 19 18 18 18 18 17 16 15 15 15 16 15 15 14 14 14 13 13
26 27 30 32 34 36 35 35 35 34 33 33 33 33 31 29 31 34 33 32 34 35 33 32 33 34 34 33 31 29 26 24 23 22 21 20 19 20 22 23 24 24 23 23 24 23 22 21 19 17 18 18 19 19 19 19 20 21 21 20 19 18 18 18 20 20 21 21 20 20 20 20 19 18 16 15 16 16 16 15 16 15 15 14 13
23 26 29 32 34 34 32 32 33 32 30 30 32 34 34 33 34 37 37 35 34 35 36 36 35 34 35 36 36 33 29 26 25 24 22 21 20 20 21 23 24 24 24 23 23 21 20 18 17 16 16 17 18 18 19 19 20 21 20 19 19 19 19 20 21 22 22 22 22 22 22 21 20 19 16 16 17 17 17 16 16 17 16 15 14
23 26 29 31 31 30 29 30 32 32 30 31 32 34 35 35 38 41 40 36 36 39 40 39 37 35 36 37 37 34 30 27 27 24 22 22 21 21 23 24 23 23 23 22 20 19 18 16 15 15 16 16 17 17 18 19 19 19 19 19 19 20 20 21 22 22 22 23 23 23 23 22 21 20 18 17 18 19 18 17 17 17 18 16 15
23 25 27 29 29 28 28 31 34 35 35 36 36 36 38 38 40 43 41 36 35 38 41 41 37 36 36 36 36 35 32 29 28 26 23 22 22 22 23 23 23 24 23 21 19 18 17 15 14 14 14 15 16 17 19 19 18 18 18 18 19 20 20 21 22 22 22 22 22 22 23 22 21 20 19 18 18 19 19 18 18 18 19 18 18
22 22 25 27 27 26 27 30 34 37 38 38 39 40 41 41 41 42 41 38 35 35 39 41 38 36 36 37 36 35 33 31 30 28 25 24 23 23 22 23 24 25 22 20 19 17 17 17 16 15 15 15 17 19 19 19 18 18 18 18 19 20 20 21 22 23 23 23 23 23 22 21 20 21 20 19 18 19 19 19 19 19 19 19 19
20 21 24 25 25 26 28 30 34 37 38 39 41 41 42 43 43 41 41 42 41 37 38 41 40 37 38 39 37 35 34 33 32 31 28 26 24 24 24 26 27 26 24 23 22 19 18 18 17 16 16 17 18 20 20 20 20 20 20 19 19 20 21 22 22 23 23 23 23 23 22 21 20 20 19 18 18 19 19 19 19 18 18 18 19
17 18 20 23 24 25 28 31 35 37 38 39 41 41 42 43 42 40 40 43 43 39 37 40 41 39 38 37 36 36 35 34 33 31 29 27 27 27 28 30 30 30 29 27 25 22 20 19 19 20 20 20 20 22 23 24 24 23 22 20 20 20 21 22 23 23 23 22 21 20 19 19 18 18 18 19 19 19 19 19 18 18 17 18 19
15 16 18 21 24 26 29 33 35 37 38 38 39 40 40 41 40 37 36 37 40 38 35 34 35 35 34 33 34 36 37 34 31 28 26 25 26 27 27 27 28 29 28 26 25 24 24 24 24 24 23 22 22 24 26 26 26 25 23 22 21 21 22 23 24 24 22 20 18 16 15 15 16 17 18 19 19 20 20 19 19 18 18 19 19
14 16 19 22 25 28 31 34 38 40 39 38 38 38 38 39 40 37 33 34 36 35 31 31 30 28 27 27 30 32 32 29 27 26 24 24 25 24 21 20 21 23 24 25 26 26 27 27 27 26 25 24 23 24 26 27 28 27 26 25 23 23 23 24 24 23 21 19 18 16 15 15 16 16 17 19 19 20 20 20 20 20 20 19 19
13 17 21 23 26 28 31 35 40 41 39 36 37 37 37 39 41 39 36 36 36 32 28 28 27 22 20 23 27 29 27 24 22 22 22 23 23 22 20 19 20 21 23 25 28 30 30 29 28 27 26 26 24 23 24 25 27 29 28 27 25 24 24 24 24 23 22 20 19 18 17 16 16 16 16 18 18 19 20 21 22 22 21 20 19
11 13 17 21 25 30 34 37 39 39 37 37 38 37 37 39 41 41 40 38 34 30 26 25 23 20 18 20 23 24 24 22 20 19 20 21 20 19 20 21 22 23 24 26 29 31 30 29 29 28 27 26 24 22 22 23 25 28 29 28 27 26 24 24 23 23 23 22 21 20 19 18 17 17 17 17 18 19 20 21 22 23 23 22 21
8 10 12 15 20 26 30 33 33 33 34 36 37 37 38 39 41 42 40 34 29 28 27 26 25 23 21 18 15 16 18 19 18 19 21 21 21 20 21 23 24 25 26 28 30 31 30 29 30 28 26 25 23 21 21 22 23 25 28 29 28 27 25 23 23 24 25 25 24 23 22 20 19 18 18 18 18 19 20 21 22 23 23 23 22
7 9 11 14 17 20 24 26 28 30 31 31 32 34 36 38 39 39 36 31 29 30 30 28 27 26 23 18 14 15 17 18 18 18 20 21 22 23 23 23 23 25 27 29 30 31 32 32 32 30 27 25 23 22 22 23 23 24 26 27 27 27 26 25 25 26 27 26 26 26 25 23 22 21 20 19 19 19 20 21 22 22 22 23 22
9 10 12 15 18 20 22 23 26 28 28 27 28 30 32 34 34 33 31 30 31 31 30 28 27 25 22 18 17 17 18 18 19 19 20 22 25 25 26 27 28 29 30 31 32 33 34 34 32 30 28 27 26 25 24 24 23 23 24 25 26 27 27 27 27 27 27 27 28 28 26 25 24 23 21 20 20 20 21 21 22 22 22 22 21
7 8 9 12 15 17 19 22 24 25 24 24 25 26 28 29 29 27 26 28 29 29 27 26 24 22 20 19 18 18 18 18 18 18 20 23 26 27 28 29 30 31 32 32 33 34 35 34 32 30 29 28 27 26 25 24 24 23 23 23 24 24 25 26 27 27 28 28 28 28 27 26 26 24 23 22 22 22 21 21 23 24 23 22 21
7 6 5 6 10 13 16 19 21 21 21 21 22 23 23 24 25 25 25 25 25 22 21 21 20 19 19 20 19 19 19 18 17 18 20 22 24 26 26 27 27 28 30 31 32 32 32 31 30 30 29 28 28 27 26 25 24 23 23 22 22 23 24 25 25 26 27 28 29 29 28 27 26 25 24 25 24 23 22 22 23 25 24 23 22
11 9 8 5 5 8 11 15 17 18 18 19 19 19 20 22 22 21 20 20 19 17 17 17 18 17 17 18 19 19 19 19 20 21 22 23 25 26 26 27 27 27 27 28 29 29 29 28 28 27 27 27 27 27 26 24 23 22 21 21 21 22 22 23 24 26 28 29 30 30 29 29 28 27 27 27 26 24 22 22 23 24 24 23 22
12 11 10 8 6 4 6 11 14 14 15 17 17 17 17 18 18 17 16 16 17 16 16 16 16 16 15 15 16 18 19 21 23 24 25 26 27 27 28 28 28 27 26 26 26 26 27 28 27 25 25 25 24 24 23 22 21 20 20 20 21 21 22 22 24 25 27 29 30 30 30 30 30 29 28 28 26 24 23 23 23 23 23 23 22
11 11 10 8 7 6 2 5 10 12 14 15 15 16 16 16 15 14 14 15 15 15 15 14 13 13 13 14 15 17 18 21 22 24 25 26 26 27 28 28 27 25 23 22 23 24 25 26 26 25 24 23 22 21 20 20 19 19 20 20 21 22 22 23 24 25 26 27 28 29 29 29 29 29 28 28 26 24 23 24 23 23 23 23 22
8 7 7 7 7 8 8 6 4 6 8 9 9 10 13 13 13 13 13 13 12 12 12 12 12 12 13 13 14 15 15 17 18 20 21 22 24 25 26 25 23 21 20 19 20 21 23 24 24 24 23 22 20 19 19 19 19 20 20 21 22 22 23 23 24 24 25 25 26 27 27 28 28 28 28 27 25 24 24 25 24 23 23 23 22
9 7 5 6 7 8 10 11 11 10 11 12 12 10 10 11 12 12 12 12 12 11 11 12 14 14 15 15 15 14 14 15 16 17 18 19 20 22 23 22 21 20 19 18 18 19 20 22 22 22 22 20 19 19 19 20 20 20 21 22 22 22 22 22 22 23 23 24 24 25 26 26 26 27 27 26 25 25 26 25 24 23 23 23 22
12 11 9 7 7 8 10 11 11 12 14 15 15 14 12 11 11 12 11 11 11 11 11 11 12 13 13 15 15 15 15 15 15 16 16 17 18 19 20 21 21 20 19 18 17 17 19 21 21 21 20 19 19 20 20 21 21 22 22 23 23 23 22 22 22 22 22 23 23 23 24 24 25 25 26 26 26 26 27 25 24 24 23 22 22
14 13 12 9 7 8 9 9 10 11 13 13 13 13 12 10 10 10 10 10 10 9 9 9 10 11 12 13 14 15 15 15 15 15 16 16 17 18 19 20 20 19 19 18 17 18 20 21 21 20 20 20 21 22 22 23 23 24 24 24 24 24 24 23 22 21 21 21 22 22 23 24 24 24 25 26 27 27 27 26 26 24 23 22 22
12 12 12 11 10 8 8 9 9 11 13 12 12 12 11 10 9 9 9 9 9 9 9 10 10 11 11 11 11 12 13 13 14 15 16 16 17 18 19 20 20 20 20 19 19 20 20 21 21 21 22 22 24 24 25 25 25 25 25 25 26 25 25 24 22 21 20 21 22 23 23 24 24 24 25 26 27 28 28 28 27 26 24 23 22
9 9 10 11 11 10 10 10 10 11 12 11 11 10 9 9 9 9 9 9 9 9 10 10 11 11 11 11 11 11 12 13 14 15 16 17 18 19 20 21 21 21 21 21 22 22 23 22 22 23 24 25 26 26 25 24 24 24 24 25 25 25 25 24 23 22 22 22 22 23 24 24 25 25 25 25 27 28 29 29 28 27 26 24 23
9 8 8 8 9 10 10 10 10 9 9 9 8 9 10 10 9 9 9 8 8 9 9 9 10 10 11 11 11 12 13 14 15 15 16 17 17 18 19 20 21 22 23 24 24 25 25 24 24 25 25 26 26 26 25 24 23 23 23 23 23 24 24 25 25 24 23 23 23 23 24 25 25 25 24 25 27 28 29 29 29 28 26 25 23
7 8 8 8 8 9 9 9 9 9 9 9 9 9 10 10 9 9 8 8 7 7 7 7 7 8 8 9 10 11 12 14 15 16 16 16 16 16 17 18 20 21 23 24 25 26 27 27 27 27 27 26 26 25 24 23 22 22 21 21 21 21 22 23 24 24 24 23 23 23 24 24 25 25 25 25 26 27 27 27 27 26 25 25 24
10 9 10 9 9 10 11 10 10 10 11 11 11 12 11 10 9 8 8 8 7 7 7 7 7 7 6 6 7 9 11 12 13 14 14 14 14 15 16 17 19 20 21 22 24 25 26 27 28 28 28 27 26 25 23 22 21 21 21 20 19 19 20 22 22 23 23 23 23 23 24 24 25 25 25 25 25 25 25 24 24 24 24 24 24
13 12 10 9 10 12 12 12 11 11 11 11 11 12 11 10 10 9 8 8 7 7 7 6 6 6 5 5 5 7 8 9 11 12 13 14 14 15 15 16 17 18 19 20 21 22 24 25 26 27 27 26 24 23 21 20 20 20 19 18 17 18 18 18 18 19 20 21 22 23 24 24 25 25 25 25 24 24 24 24 23 23 23 23 23
15 14 12 11 11 11 11 11 10 10 10 10 11 11 10 10 9 8 7 6 5 5 4 4 4 3 3 3 4 5 6 7 8 10 11 12 13 13 14 15 17 17 18 19 19 20 21 22 23 23 22 21 21 20 20 20 20 19 18 17 17 17 16 15 14 14 15 17 20 22 23 24 26 26 25 25 24 24 24 24 24 23 23 23 22
Wind_Direction
229 229 227 223 221 220 222 228 232 234 236 236 235 234 234 233 233 231 225 220 220 221 221 222 221 222 226 229 229 228 230 233 237 241 245 249 249 250 253 255 249 243 239 237 235 235 236 235 232 228 224 224 224 223 228 231 234 239 241 244 245 240 234 230 234 246 254 255 258 264 269 276 280 287 295 302 310 316 319 322 329 336 339 336 330
231 230 226 223 222 220 221 226 231 233 235 236 234 233 232 232 231 229 224 220 221 221 220 221 222 223 226 229 228 228 231 234 237 241 244 247 248 248 250 253 251 246 242 240 238 237 237 235 229 224 222 222 222 220 222 224 227 232 234 236 240 237 230 229 236 244 250 254 258 264 269 273 278 287 296 302 308 312 316 320 325 328 331 331 325
231 227 224 223 222 220 221 224 229 232 234 235 234 232 230 230 230 228 223 219 219 219 219 220 222 224 226 229 228 228 230 232 235 240 242 244 246 247 249 250 248 244 241 240 239 237 236 232 225 221 220 219 218 217 217 218 221 224 224 224 227 229 228 232 241 250 258 261 261 263 268 272 276 286 296 303 307 311 314 319 324 323 321 322 321
226 223 223 224 222 220 221 223 227 230 232 234 234 231 229 228 228 225 221 217 217 218 219 220 221 223 224 227 229 228 228 230 233 238 241 243 247 249 249 247 244 240 237 236 235 234 231 226 220 217 217 217 215 213 212 215 216 213 210 206 207 212 215 219 230 250 263 264 261 260 264 270 277 285 296 304 307 313 315 318 324 320 312 315 320
225 222 222 223 221 221 222 222 226 229 230 232 232 230 228 226 225 223 219 215 216 217 218 220 221 222 224 227 228 228 227 228 231 235 238 243 248 250 248 245 240 235 232 231 230 227 222 217 215 212 212 213 212 209 209 210 207 204 198 193 197 201 202 206 215 231 247 254 255 255 259 268 278 286 295 299 300 309 318 319 320 310 301 308 318
224 219 220 222 221 222 222 223 226 228 229 231 231 228 226 225 224 222 217 214 214 216 218 220 222 223 225 227 226 226 225 225 228 231 237 244 248 249 246 241 235 230 227 226 224 221 216 211 208 207 207 208 207 206 207 205 201 199 199 198 202 204 207 214 217 218 230 241 247 251 257 267 279 287 295 297 288 281 289 313 325 317 311 314 323
222 219 220 221 221 222 222 223 225 227 229 230 230 227 223 223 222 220 216 213 213 216 217 220 222 222 225 225 224 224 223 222 225 229 236 244 247 246 242 236 230 226 223 221 217 214 211 208 205 202 202 202 201 200 202 200 196 199 204 206 209 213 215 213 207 212 225 236 243 250 260 271 279 283 290 294 286 272 273 291 316 321 326 332 340
224 222 219 219 222 222 222 224 226 227 228 230 231 227 221 220 220 217 213 211 213 216 218 221 224 225 226 223 221 222 222 221 223 228 236 243 246 244 238 231 226 222 220 217 213 210 207 205 203 200 199 199 196 196 197 198 199 204 207 208 211 218 218 208 205 215 226 233 241 249 260 272 279 281 285 287 279 270 274 289 311 319 333 343 341
223 220 218 220 223 221 222 225 225 226 228 229 230 228 221 218 217 214 211 212 214 216 218 223 227 230 232 225 218 219 220 219 222 228 236 243 245 242 235 227 221 219 218 215 211 208 205 204 203 200 199 197 193 195 200 203 207 211 213 215 218 220 214 206 208 218 225 232 241 249 258 269 274 275 275 269 258 260 273 297 324 327 333 345 338
219 219 220 222 223 220 222 224 224 224 225 226 227 225 218 215 214 210 210 214 216 215 218 222 225 230 235 228 218 217 218 218 220 227 236 243 244 239 231 223 217 215 216 214 210 207 205 205 204 201 200 198 196 201 209 212 214 216 218 223 225 220 214 213 213 218 226 233 239 249 258 264 269 269 264 260 258 262 276 301 321 322 329 342 340
217 220 221 222 221 220 222 223 222 222 223 223 223 222 216 213 211 208 210 214 214 214 218 221 222 229 236 227 217 216 216 216 219 227 235 242 242 234 225 219 215 215 214 213 210 208 207 206 205 203 203 202 202 207 214 216 217 219 224 229 224 213 211 217 218 219 228 235 238 248 256 261 267 267 262 261 262 262 277 300 310 314 328 338 341
217 219 219 219 220 221 221 220 219 221 222 221 220 219 215 212 211 210 211 213 212 213 217 220 221 230 236 227 218 215 212 213 219 227 234 240 240 232 221 215 214 215 214 213 210 209 208 208 206 205 206 206 206 210 215 217 219 221 226 230 223 213 211 214 215 219 228 234 239 248 255 261 263 262 261 261 258 260 276 297 303 304 314 326 337
218 218 218 218 219 220 219 218 218 220 221 220 218 215 213 212 211 211 211 211 211 215 219 216 218 228 235 229 221 213 209 211 218 226 233 240 239 230 220 214 213 213 214 213 211 209 208 208 207 207 207 206 206 210 215 219 221 223 227 229 223 217 217 218 217 221 225 230 238 247 254 259 259 258 261 261 254 256 267 284 293 296 299 307 320
215 216 217 217 218 217 217 217 218 219 219 218 216 213 212 212 212 212 212 211 212 217 219 216 218 227 230 228 222 213 207 211 219 226 234 241 239 229 220 214 212 212 212 211 211 210 208 207 206 208 209 208 208 213 217 220 223 226 230 230 224 220 222 223 223 226 229 232 240 248 254 255 255 258 262 261 255 253 259 272 280 284 289 292 302
213 215 216 216 215 215 216 218 219 218 217 216 214 212 212 212 211 213 215 213 212 217 219 218 223 226 223 223 220 211 207 212 220 226 233 241 239 228 220 215 212 210 209 208 208 209 208 206 205 208 211 210 212 219 221 223 226 229 230 230 226 223 224 225 226 228 230 235 241 247 252 252 254 260 261 259 257 255 262 273 275 281 290 293 298
212 213 213 214 214 215 217 218 218 217 216 215 213 212 211 211 211 214 217 215 214 217 217 217 222 222 218 219 217 211 210 213 218 225 232 238 237 227 219 215 212 210 209 207 206 207 205 203 205 210 213 211 212 220 222 223 227 230 231 230 226 224 225 227 227 228 231 236 242 248 252 253 255 259 258 256 257 256 262 273 276 282 292 295 297
210 211 212 213 214 216 218 218 217 216 215 214 214 211 210 211 212 213 216 215 216 219 217 216 220 220 217 218 217 215 215 213 214 223 230 234 234 226 218 214 211 210 209 207 207 206 205 205 209 213 215 213 213 218 221 222 226 228 230 230 227 224 225 226 227 229 232 236 242 247 251 252 252 255 254 254 256 255 257 266 271 275 285 292 294
209 211 212 213 215 216 218 218 217 216 215 215 214 211 210 211 212 214 219 219 219 223 221 217 219 220 219 220 219 218 217 213 212 220 227 233 234 226 218 215 212 209 208 207 207 207 207 209 212 214 216 217 217 219 221 224 227 228 228 228 226 224 225 226 227 230 232 236 240 244 248 250 251 252 253 253 254 253 253 258 262 267 276 285 290
209 211 213 214 215 216 218 220 219 218 217 217 216 213 211 212 213 216 222 223 222 225 225 220 220 221 220 218 216 215 213 212 214 219 224 230 232 224 217 214 211 209 209 208 208 209 209 209 211 213 216 219 219 219 222 226 228 229 228 227 226 225 226 226 227 231 234 237 241 243 245 249 250 252 254 252 251 252 251 254 259 263 271 280 286
209 212 213 215 217 218 220 221 220 220 220 219 218 217 215 215 215 217 224 227 224 220 220 223 225 223 220 216 212 210 209 211 217 221 224 229 229 222 216 214 212 210 210 210 210 211 212 210 210 213 217 219 220 221 224 227 229 231 229 227 227 227 226 226 228 231 236 238 241 243 243 245 247 250 253 251 250 251 250 251 255 260 267 276 281
207 209 211 215 218 220 221 222 222 222 223 223 224 224 223 222 220 219 224 231 228 218 214 222 228 225 221 216 211 208 208 212 219 221 223 229 228 221 216 214 211 209 210 211 213 214 214 214 214 214 216 219 224 226 228 229 231 232 230 228 228 226 225 227 229 232 235 238 240 242 241 243 246 249 251 251 250 250 249 248 252 257 265 273 277
203 206 209 211 214 217 219 221 221 221 223 226 228 228 227 226 224 222 221 225 227 221 215 220 225 224 221 217 214 211 210 213 218 219 221 225 223 219 216 212 210 209 208 209 212 214 215 215 215 215 217 222 228 232 233 233 233 235 232 226 222 220 220 225 230 233 236 238 240 240 240 241 244 247 250 252 252 250 249 249 252 256 263 270 273
202 205 206 208 211 216 218 219 219 218 220 224 227 227 226 224 226 226 223 221 226 225 219 218 221 222 220 217 217 216 213 211 214 217 220 222 217 212 213 214 213 211 208 208 210 211 212 212 211 212 218 225 231 235 235 234 235 236 231 223 218 216 217 223 231 236 239 241 242 241 240 240 243 247 251 252 253 252 250 251 254 258 263 268 271
203 205 207 209 212 214 216 218 218 218 220 221 222 224 225 225 228 228 223 222 228 228 220 216 218 220 217 215 217 218 213 210 214 215 217 221 217 210 209 212 213 210 205 205 207 206 205 206 207 212 220 226 232 233 233 234 236 235 229 222 218 217 220 226 233 238 241 243 243 243 242 242 243 247 249 248 250 252 252 253 257 260 263 266 269
206 208 210 215 217 215 216 218 219 221 222 221 220 221 220 221 226 226 220 220 229 230 221 217 219 220 215 212 215 215 211 209 213 213 213 218 218 212 208 206 204 202 200 200 200 200 200 199 204 213 221 225 228 227 226 230 231 227 221 218 216 219 222 226 232 237 240 243 244 243 244 245 245 246 247 247 249 252 253 255 258 261 264 267 270
214 216 217 221 223 221 221 221 223 226 226 224 224 225 221 220 222 221 219 221 226 227 222 220 222 222 216 213 213 210 207 209 211 209 210 213 212 210 208 203 198 197 197 195 193 193 195 197 202 212 220 224 225 223 223 224 222 217 213 213 215 219 223 227 232 238 241 244 245 246 246 246 245 244 246 248 250 251 251 253 255 259 263 266 270
228 229 228 230 232 231 229 227 226 227 228 226 226 226 226 224 222 220 221 223 221 222 224 225 226 223 217 214 211 206 206 210 210 207 208 210 211 209 206 200 197 196 196 195 193 191 194 199 204 212 221 225 224 221 220 219 217 215 214 216 220 223 227 232 236 241 244 246 248 249 248 246 245 244 246 248 250 250 250 252 254 256 259 264 270
246 243 241 243 243 240 237 234 230 229 228 228 228 227 227 225 222 224 230 228 220 219 223 226 226 225 221 215 207 202 206 212 212 210 210 213 216 215 207 199 197 198 199 198 194 192 197 203 208 214 220 224 223 219 216 216 217 218 218 221 226 229 232 234 237 240 243 245 246 247 247 245 244 244 245 247 249 250 250 250 251 254 257 263 271
261 259 256 253 250 246 242 239 235 231 230 231 231 232 232 230 226 229 235 232 224 224 229 228 225 225 224 216 205 203 208 211 211 212 213 215 220 220 212 204 203 204 204 201 196 197 203 208 212 215 219 223 224 221 218 217 218 220 221 223 227 231 232 232 235 239 242 243 243 243 242 242 243 243 244 246 248 249 250 249 249 253 257 263 270
264 264 260 255 252 249 245 243 238 232 231 232 232 232 234 233 229 229 234 234 230 232 239 240 233 226 220 212 206 210 215 215 211 214 216 218 221 224 219 214 212 211 209 204 201 205 210 213 214 216 219 223 225 225 224 223 222 223 224 225 227 231 232 233 236 240 242 242 242 241 239 239 241 242 244 247 248 249 249 248 248 251 256 262 268
266 265 260 257 255 251 248 246 239 231 227 229 230 230 230 230 228 228 232 235 233 234 238 238 232 225 217 209 208 213 218 218 216 219 221 221 221 219 214 210 211 213 212 209 209 212 214 216 218 219 222 225 227 228 230 231 230 229 228 228 229 232 235 237 239 241 243 243 243 242 241 241 241 242 244 247 249 250 249 248 248 250 253 258 264
267 268 265 262 258 252 246 240 233 227 224 225 226 227 227 226 225 225 226 227 227 229 229 224 216 211 211 211 211 213 216 218 218 216 214 213 212 210 207 207 208 212 215 216 218 219 219 220 221 223 225 229 231 231 233 236 236 235 233 232 231 233 235 238 241 244 245 246 245 244 243 242 242 243 245 248 251 251 249 247 247 248 251 255 260
269 272 274 271 264 256 247 238 230 226 226 226 226 226 226 226 226 225 222 218 216 217 219 216 210 206 205 204 202 201 203 206 206 204 203 201 199 198 202 207 211 215 218 221 224 225 225 225 226 227 229 233 235 234 236 239 240 237 235 235 235 236 237 239 242 244 244 245 246 245 244 243 243 243 246 251 254 254 250 246 245 246 250 253 258
266 266 268 269 267 262 255 245 235 230 229 230 229 226 223 224 227 225 218 209 205 206 209 210 211 210 208 202 195 190 190 191 191 194 196 196 195 197 201 205 210 215 219 223 226 228 229 229 229 230 231 234 235 235 238 241 240 236 234 235 237 239 238 236 238 241 242 243 243 243 242 241 241 243 247 253 258 257 252 246 242 244 248 252 257
281 270 261 260 261 260 255 247 238 234 235 235 231 226 223 224 226 222 214 206 201 198 199 203 207 207 206 202 198 193 191 188 187 187 189 191 195 199 202 204 208 212 216 219 223 227 230 231 231 232 233 235 236 236 238 242 241 236 232 233 236 237 236 234 235 238 240 240 240 239 239 238 239 242 247 253 258 259 254 246 241 241 246 250 255
307 288 272 261 256 253 250 244 239 239 241 238 232 227 226 226 224 219 212 207 202 196 195 200 202 201 200 200 198 194 192 190 189 189 191 195 199 203 207 211 214 216 219 221 223 226 229 231 231 232 234 235 237 237 238 240 239 236 233 233 234 235 235 234 235 237 239 240 239 237 236 237 238 241 246 251 256 258 255 247 240 239 243 248 253
9 351 327 282 256 247 242 238 238 239 239 235 232 230 227 224 221 216 210 205 203 199 198 199 200 198 196 195 194 192 193 194 194 194 197 200 203 209 215 221 223 225 228 230 231 233 234 234 234 233 233 233 234 235 237 238 237 235 234 234 235 236 237 237 238 239 240 240 239 237 236 237 239 241 245 251 256 257 255 248 240 238 241 246 250
37 33 30 10 308 269 248 236 232 233 232 230 231 230 225 219 213 208 204 199 195 191 189 191 193 195 194 194 194 195 198 202 203 202 202 203 205 211 218 223 227 230 233 236 238 239 240 240 239 237 236 235 235 235 237 238 237 236 236 236 237 239 240 240 240 239 239 239 238 237 237 238 239 241 245 249 253 255 253 247 240 239 242 246 246
53 52 50 43 22 338 276 244 230 221 218 219 219 216 212 207 198 190 188 187 186 187 190 192 192 193 195 198 200 201 204 209 210 210 210 210 210 213 218 223 226 229 233 237 239 238 238 239 240 238 236 235 235 235 236 236 236 236 237 237 238 239 239 239 239 239 239 238 239 238 237 238 239 241 243 246 250 251 248 243 240 240 242 243 242
54 59 65 68 65 57 35 244 228 214 206 208 210 209 204 197 186 180 183 186 187 190 191 191 192 195 198 202 206 209 211 215 217 218 218 218 217 219 222 225 227 230 235 240 241 240 239 240 239 237 234 233 234 233 233 233 233 234 234 236 237 239 240 240 240 241 240 240 239 239 239 238 239 240 241 243 246 246 243 239 239 240 240 240 241
37 46 70 84 81 77 81 95 141 175 176 175 185 199 198 185 170 166 166 168 173 179 180 184 193 202 206 209 214 217 219 221 222 224 225 225 225 226 227 228 230 233 239 245 245 244 242 241 239 237 234 232 230 229 229 229 230 232 233 236 238 240 242 243 243 244 244 243 241 239 238 238 237 238 240 241 242 240 236 235 236 238 237 237 239
35 37 68 92 90 88 94 99 101 111 123 125 130 148 162 157 153 154 155 158 167 176 179 184 191 196 200 204 207 211 216 219 221 223 225 227 230 231 231 231 231 234 240 245 246 245 244 243 241 237 233 229 227 226 227 229 230 232 234 236 239 241 244 246 246 247 246 245 243 240 238 236 236 237 238 238 236 233 231 232 234 235 236 236 237
44 49 63 80 90 95 102 109 115 122 127 129 132 139 144 144 147 154 159 162 169 174 176 180 185 188 193 198 202 205 208 212 214 216 220 223 226 228 229 231 232 234 238 241 242 243 243 242 240 236 231 227 226 226 227 229 231 232 234 237 239 242 244 246 248 247 246 244 243 241 238 236 235 235 235 234 230 229 229 229 230 232 234 236 237
49 51 56 63 73 82 89 98 112 124 130 132 135 139 140 141 145 153 160 165 171 176 184 191 194 194 195 200 206 208 209 210 214 218 221 225 227 228 227 226 226 229 232 235 235 235 235 235 234 231 228 225 224 225 228 230 232 234 237 239 242 244 246 248 251 251 250 248 246 242 239 237 235 235 234 232 229 227 228 228 228 230 232 234 235
50 55 59 63 66 71 77 87 102 117 125 130 132 133 136 140 145 152 160 168 176 188 199 206 208 206 204 207 211 212 211 213 217 221 225 230 232 232 229 227 226 227 228 229 228 227 227 227 227 226 225 225 226 228 231 233 234 237 239 242 245 247 249 251 253 253 252 249 247 244 241 239 238 236 235 232 229 227 228 229 229 230 231 232 233
40 53 67 74 76 79 86 95 105 116 123 128 130 135 143 154 159 162 169 178 186 194 202 207 209 207 203 204 206 207 209 213 217 222 226 229 230 230 230 230 230 229 228 228 227 225 222 222 222 224 225 226 228 230 232 233 235 238 241 244 247 249 250 251 252 252 251 249 248 246 244 242 240 238 236 232 229 228 229 230 230 231 232 232 233
33 40 57 76 85 89 97 105 110 115 121 128 136 142 149 155 159 163 170 179 186 192 196 201 205 205 204 204 205 206 208 211 213 217 221 223 225 227 229 231 231 230 228 227 228 227 225 222 222 223 225 226 228 230 232 233 236 239 243 246 249 250 250 250 251 252 253 252 250 248 246 243 241 238 235 232 229 229 230 232 232 233 234 234 234
30 31 40 57 74 85 96 106 110 112 116 124 132 135 136 136 139 145 152 162 172 180 184 190 200 209 215 219 221 221 221 220 219 219 220 219 220 223 228 232 234 234 232 229 228 228 228 226 225 225 226 226 226 229 232 235 237 240 244 248 251 253 253 252 252 253 254 254 252 250 247 244 240 236 233 231 230 230 232 233 233 233 234 233 230
39 38 41 49 60 72 81 90 96 99 102 108 115 120 122 125 130 135 140 146 155 161 166 172 179 189 205 223 236 239 238 237 235 235 234 230 227 226 228 230 232 235 236 235 232 230 230 229 227 227 228 228 228 228 231 235 238 241 246 251 255 257 257 256 255 255 255 253 252 250 248 243 239 235 231 230 231 231 231 231 230 229 228 226 223
49 49 53 62 72 79 82 86 90 94 97 101 109 115 120 125 131 137 140 145 151 158 166 172 175 178 191 216 238 246 246 244 243 242 242 241 239 237 236 236 236 237 238 238 238 238 237 235 232 231 230 228 227 228 231 234 238 243 247 251 253 254 254 254 253 253 252 251 250 249 248 243 237 233 230 230 231 230 228 226 224 222 222 221 221
50 54 60 69 78 84 86 88 91 98 106 111 114 118 122 126 130 134 137 141 150 163 176 185 186 190 210 237 252 253 250 246 243 243 242 242 243 243 245 247 247 245 243 241 241 239 238 236 233 230 226 223 223 227 232 237 241 243 242 240 240 242 244 245 246 249 250 249 248 247 246 241 235 231 231 232 231 228 225 223 222 221 222 223 224